{"data":{"norad_id":57653,"intl_designator":"2023-122X","name":"STARLINK-30289","alt_names":[],"object_type":"PAYLOAD","status":"ACTIVE","operator":null,"country":"US","launch_date":"2023-08-17","launch_site_code":"AFETR","launch_vehicle":null,"mission":null,"orbit_class":"UNKNOWN","rcs_meters":null,"size_class":null,"mass_kg":null,"dimensions":null,"purposes":["comms"],"wikipedia_slug":null,"has_3d_model":false,"image_url":null,"decayed_at":null,"tle_current":{"epoch":"2026-05-25T00:07:49.768896Z","epoch_age_seconds":81482,"freshness":"FRESH","line1":"1 57653U 23122X   26145.00543714 -.00000130  00000+0  48201-5 0  9992","line2":"2 57653  43.0048  10.8523 0001643 249.6299 110.4376 15.27571203153993","mean_motion":15.27571203,"eccentricity":0.0001643,"inclination_deg":43.0048,"raan_deg":10.8523,"arg_perigee_deg":249.6299,"mean_anomaly_deg":110.4376,"bstar":4.8201e-6,"rev_number":15399,"period_min":94.267291578421,"perigee_km":481.94814034528,"apogee_km":484.20273475226,"semimajor_km":6861.2124375488,"source":"CELESTRAK","updated_at":"2026-05-25T13:38:18.366399Z"}}}